Location: Владивосток
(43.1151°N, 131.8856°E)
Time: 00:59:10
(UTC+10:00)

FO-29 - Pass Details

Date: 01 May 2024
Orbit: 801 x 1320 km, 98.6° (Epoch: 19 May)

Event Time Altitude Azimuth Distance (km) Brightness Sun altitude
Rises 02:07:51 0° 20° (NNE) 4,286 14.0 -30.3°
Reaches altitude 10° 02:10:48 10° 28° (NNE) 3,339 13.2 -30.1°
Maximum altitude 02:18:02 39° 95° (E) 1,887 11.0 -29.7°
Enters shadow 02:20:35 31° 132° (SE) 2,115 11.0 -29.6°
